SCP
0 1 1 1 1 1 1 1 1 1 1 1 1 1 1 1 1 1 1 1 1 1 1 1 1 1 1 1 1 1 1 1 2 2 3 4 3 3 2 1 1 1 1
0 1 1 1 1 1 1 1 1 1 1 1 1 1 1 1 1 1 1 1 1 1 1 1 1 1 1 1 1 1 1 1 2 2 2 3 3 2 2 1 1 1 1
0 1 1 1 1 1 1 1 1 1 1 1 1 1 1 1 1 1 1 1 1 1 1 1 1 1 1 1 1 1 1 1 1 1 1 1 1 1 1 1 1 1 1
1 1 1 1 1 1 1 1 2 1 1 1 1 1 1 1 1 1 1 1 1 1 1 1 1 1 1 1 1 1 1 1 1 1 1 1 1 1 1 1 1 1 1
1 1 1 0 1 1 1 1 2 2 1 1 1 1 1 1 1 1 1 1 1 1 1 1 1 1 1 1 1 1 1 1 1 1 1 1 1 1 1 1 1 1 1
1 1 1 1 1 1 1 1 2 2 1 1 1 1 1 1 1 1 1 1 1 1 1 1 1 1 1 1 1 1 1 1 1 1 1 1 1 1 1 1 1 1 1
1 1 1 1 1 1 1 1 1 1 1 1 1 1 1 1 1 1 1 1 1 1 1 1 0 1 1 1 1 1 1 1 1 1 1 1 1 1 1 1 1 1 1
0 1 1 1 1 1 1 1 1 1 1 1 1 1 1 1 1 1 1 1 1 1 1 1 0 1 1 1 1 1 1 1 1 1 1 1 1 1 2 2 2 1 1
0 1 1 1 1 1 1 1 1 1 1 1 1 1 1 1 1 1 1 1 1 1 1 1 1 1 1 1 1 2 1 1 1 1 1 1 1 2 2 2 2 2 2
0 1 1 1 1 1 1 1 2 2 2 2 2 2 2 1 1 1 1 1 1 1 1 1 1 1 1 1 2 2 2 1 1 1 1 1 2 2 2 2 2 2 1
1 1 1 1 1 1 1 2 2 2 2 2 2 2 2 1 1 1 1 1 1 1 1 1 1 2 2 2 2 2 2 1 1 1 1 1 2 2 2 2 2 1 1
1 1 1 1 1 1 1 1 1 2 2 2 2 1 1 1 1 1 1 1 1 1 1 1 2 2 2 2 2 2 2 1 1 1 1 1 2 2 2 2 2 2 2
1 1 1 1 1 1 1 1 1 1 1 1 1 1 1 1 1 1 1 2 1 1 1 1 1 1 2 2 2 2 2 1 1 1 1 2 2 2 2 2 2 2 2
2 2 1 1 1 1 1 1 1 1 1 1 1 1 1 1 1 1 2 2 2 2 2 1 1 1 1 2 2 1 1 1 1 1 1 2 2 2 2 2 2 2 2
3 3 2 2 1 1 1 1 1 1 1 1 1 1 1 1 1 2 2 2 2 2 2 2 2 2 2 2 1 1 1 2 2 2 2 2 2 2 3 3 2 2 2
3 2 2 2 1 1 1 1 1 1 1 1 1 1 1 1 2 2 2 2 2 2 2 2 2 2 2 2 2 2 2 2 2 2 2 2 2 2 2 2 2 2 2
2 2 1 1 2 1 1 1 1 1 1 2 2 2 2 2 2 1 2 2 2 2 2 2 2 2 2 2 2 2 2 2 2 2 2 2 2 2 2 2 2 2 2
2 2 2 1 2 2 2 1 1 1 2 2 2 2 2 2 2 2 2 2 2 2 1 1 1 1 1 2 2 3 3 2 2 2 2 2 2 2 2 2 3 2 2
2 3 2 2 2 2 2 2 2 2 2 2 2 2 2 2 2 2 2 2 2 1 1 1 1 1 1 2 2 2 3 3 3 2 2 2 2 2 2 3 3 3 3
3 3 3 3 3 3 2 2 2 2 2 2 2 2 2 2 2 2 2 2 2 1 2 2 2 2 2 1 1 1 2 2 3 3 2 2 2 2 2 3 3 3 3
3 4 4 3 3 3 3 2 2 2 2 2 2 2 2 2 2 2 2 2 2 2 2 2 2 2 2 1 1 1 1 2 3 3 2 2 2 2 2 2 3 3 3
4 4 4 4 4 4 3 2 2 1 2 2 2 2 2 2 2 2 2 2 2 2 2 2 2 2 2 1 1 1 2 2 3 3 3 3 2 2 2 2 3 4 4
4 5 4 4 4 4 3 3 2 2 2 1 2 2 3 3 2 2 2 2 2 2 2 2 2 2 2 2 2 2 2 2 3 3 3 3 3 3 2 2 3 4 4
4 4 4 5 5 5 4 3 3 3 2 2 2 3 4 3 2 2 2 2 2 2 2 2 3 3 3 3 3 3 3 3 4 4 3 3 3 3 3 2 2 3 4
3 3 4 6 6 6 6 5 4 4 3 3 4 4 4 4 3 3 3 3 3 2 2 3 3 4 4 4 4 4 4 5 5 4 4 4 3 3 3 2 3 3 3
3 3 4 7 8 8 7 6 5 5 4 4 5 6 5 4 4 4 4 4 3 3 3 3 4 4 5 5 5 5 5 6 6 5 4 4 4 3 3 3 3 3 3
Wind_Speed
8 9 9 10 11 11 11 11 12 12 12 13 13 13 13 13 14 14 13 13 13 13 13 14 14 14 14 14 14 14 14 14 14 14 14 14 13 12 11 10 10 9 12
9 9 11 11 11 11 12 12 12 12 12 13 13 13 13 14 14 13 13 12 13 13 13 13 14 14 14 14 13 13 13 13 13 13 13 13 12 11 10 8 8 8 11
11 10 10 11 11 11 12 12 12 12 12 12 13 13 13 13 13 13 13 13 13 13 14 13 14 13 13 13 13 12 12 12 11 11 11 8 9 11 11 10 10 10 10
12 10 10 11 11 12 12 12 12 13 13 12 13 13 13 13 13 13 13 13 13 13 13 13 14 13 12 11 11 11 10 9 9 9 5 6 7 11 11 10 10 9 9
12 11 11 12 12 12 12 12 12 12 12 13 13 12 12 12 12 13 13 13 13 13 13 13 13 12 11 11 10 9 8 7 7 5 4 5 6 11 11 9 9 8 9
13 12 11 12 12 12 12 12 12 12 12 12 12 12 12 12 12 12 12 12 12 12 12 12 12 11 11 10 9 7 6 5 4 4 5 6 6 10 11 9 8 8 8
12 11 11 12 12 12 12 12 12 12 12 12 12 11 11 11 11 11 12 11 11 11 12 12 11 11 10 9 7 6 4 3 2 4 5 5 7 11 10 9 8 7 7
12 11 11 12 12 11 11 11 11 11 11 11 11 11 11 11 11 11 11 11 11 11 11 11 10 10 8 7 5 4 3 1 2 5 6 6 10 11 10 9 8 7 7
10 11 10 10 10 10 11 11 10 10 10 10 10 10 10 10 10 10 11 11 10 10 10 10 9 8 7 6 5 4 3 2 1 2 5 5 10 10 10 9 8 7 7
9 8 9 9 9 8 9 10 10 10 9 8 8 8 8 9 8 10 10 10 10 9 9 8 8 7 6 5 5 5 4 2 2 3 4 6 10 10 10 9 7 7 6
8 7 7 7 7 7 8 9 9 9 7 7 6 6 6 5 6 6 10 10 9 8 7 7 6 6 6 6 6 6 4 2 2 3 4 8 10 10 9 8 7 7 7
7 7 7 6 6 6 6 6 4 5 5 3 3 3 3 3 4 7 9 9 8 7 6 5 6 6 5 4 6 6 3 3 3 4 5 9 9 8 8 8 7 7 6
6 7 8 7 5 6 5 4 2 3 3 3 3 2 2 3 3 4 3 5 4 5 3 4 4 3 3 1 2 3 2 1 3 3 6 10 9 8 7 7 7 6 6
7 8 8 7 6 5 4 3 3 3 2 2 3 2 3 2 3 3 2 2 2 2 1 2 1 2 1 1 2 2 2 1 2 3 5 10 9 8 7 6 6 5 5
8 8 8 7 6 5 4 2 3 3 2 3 2 2 3 3 3 3 2 1 1 1 1 1 1 2 1 0 0 1 1 1 2 4 4 9 9 8 7 7 6 6 5
8 8 7 7 6 4 3 2 2 3 3 3 3 4 4 3 2 2 2 1 1 2 2 1 1 1 1 1 1 1 1 1 2 3 4 6 9 8 8 7 6 6 5
8 8 7 6 6 4 3 1 2 2 3 3 3 4 3 3 2 2 2 1 1 1 1 0 1 1 1 1 1 0 1 1 1 2 3 3 5 8 9 8 7 7 6
8 7 5 6 7 4 2 1 1 2 3 3 2 2 3 3 2 2 1 1 0 0 1 1 1 1 1 1 0 0 0 1 1 1 2 3 3 4 7 9 9 8 8
8 7 5 5 6 4 3 1 2 2 2 2 2 2 2 2 2 1 1 1 0 0 1 1 2 1 1 1 1 1 1 1 1 1 2 3 3 4 4 7 10 9 9
9 7 6 5 4 4 3 2 1 1 1 1 2 2 2 1 1 1 0 1 1 1 1 1 1 1 1 1 2 1 1 1 1 1 1 1 2 3 4 5 5 7 9
9 8 6 5 4 3 2 2 2 2 1 1 2 3 2 1 1 0 1 1 0 1 1 1 1 2 1 0 0 1 2 2 2 2 2 2 2 2 2 4 3 3 4
9 8 7 6 5 4 3 1 1 1 1 2 2 3 2 1 1 1 0 1 0 0 0 0 1 1 2 1 1 1 1 1 1 2 2 2 2 2 2 2 3 2 2
10 9 7 6 5 4 3 2 1 1 1 1 2 2 2 2 1 0 0 1 1 0 0 1 1 2 2 2 1 1 1 1 1 1 1 1 1 1 1 1 3 3 2
10 10 7 6 5 4 4 3 3 3 2 2 1 2 2 2 1 1 1 1 1 1 0 1 0 2 2 2 1 1 1 1 1 1 1 1 0 0 0 0 1 2 2
11 10 8 7 6 5 4 3 3 2 2 2 2 2 2 2 2 1 1 1 1 1 1 1 1 2 2 2 2 2 2 2 2 2 2 1 1 1 1 1 1 1 2
11 10 10 8 6 6 5 4 3 3 2 1 1 2 2 2 2 2 2 1 1 1 1 1 1 2 2 2 2 2 1 1 2 1 2 2 1 1 1 1 1 1 1
Wind_Direction
67 65 59 64 70 72 72 73 75 75 76 78 78 80 84 86 87 90 95 101 105 109 110 112 115 120 121 120 118 121 120 122 124 124 123 122 122 120 120 120 122 115 117
83 78 71 70 72 75 75 77 77 77 79 80 81 83 87 88 89 91 95 100 105 108 110 111 115 120 122 123 123 125 124 124 129 129 128 125 125 126 124 117 111 119 126
88 87 80 73 74 78 79 82 81 80 82 84 85 84 87 88 90 92 94 100 105 107 108 111 115 118 122 125 128 129 130 132 133 132 135 132 128 125 120 115 116 121 126
92 85 78 77 76 82 83 83 82 82 83 85 86 86 87 88 90 92 94 99 103 106 108 110 112 115 118 124 129 132 136 139 144 149 140 130 129 127 126 123 123 127 130
91 88 85 83 81 83 83 84 83 84 84 84 86 89 91 92 92 94 95 97 99 103 106 107 112 116 118 123 124 127 136 147 158 147 119 124 120 132 132 130 131 133 134
95 93 94 90 86 85 87 87 86 86 87 87 87 91 91 94 97 98 99 100 100 103 106 108 111 118 117 119 123 126 137 153 165 136 124 118 121 135 136 137 140 141 142
101 102 102 99 93 90 89 88 88 87 88 90 90 92 93 95 97 99 100 101 102 105 109 111 112 116 121 126 130 137 147 156 151 114 106 111 122 134 138 141 147 148 148
103 106 108 108 103 97 94 93 92 90 91 93 93 95 96 97 98 99 102 103 105 109 111 114 117 119 124 129 135 143 147 150 143 122 117 119 132 140 145 149 150 153 154
97 109 119 123 117 109 105 103 99 95 94 96 99 100 102 105 106 105 106 104 105 111 112 116 125 131 134 142 154 163 167 174 191 126 125 126 141 148 152 157 160 163 167
93 99 108 120 129 128 120 113 110 106 103 104 107 109 112 116 116 117 117 114 113 113 117 122 134 142 152 165 180 191 193 211 184 140 126 134 148 155 158 161 166 173 177
96 93 97 106 121 120 115 121 126 121 113 116 117 121 128 129 127 124 113 122 125 126 129 136 152 162 174 187 201 214 216 205 164 123 119 138 151 157 162 165 170 180 185
99 101 96 87 93 100 97 114 127 117 119 120 101 123 134 117 111 108 117 130 136 141 148 160 173 182 201 194 195 207 212 194 137 128 131 143 152 158 163 170 177 183 188
104 93 96 86 69 72 85 99 93 100 111 107 102 99 104 100 108 114 130 139 153 165 178 167 188 197 192 176 163 181 182 149 120 127 136 144 155 162 167 173 180 187 193
103 94 94 95 78 61 59 72 92 93 99 95 95 73 82 74 75 89 91 127 157 164 165 161 179 145 157 156 155 165 157 155 133 131 144 151 155 162 170 176 184 191 197
113 104 96 90 82 71 56 37 79 79 81 93 87 62 66 73 67 77 67 37 62 97 105 44 76 100 83 45 105 129 125 132 137 133 143 159 162 168 175 180 189 199 205
125 115 109 106 98 88 80 54 56 69 69 71 70 62 58 67 63 75 85 48 35 53 62 42 72 88 92 102 84 80 103 77 107 132 144 161 169 172 176 185 193 197 200
124 118 120 118 110 99 85 57 83 83 86 79 78 70 61 65 61 61 67 62 42 61 105 94 62 100 141 124 109 90 109 133 114 130 152 160 173 182 182 186 188 191 194
127 125 130 127 121 118 107 55 62 71 85 91 92 88 77 73 59 62 70 65 334 8 61 104 81 42 33 39 61 225 147 173 193 180 161 165 177 175 185 190 188 191 196
133 130 133 122 130 132 131 134 102 91 92 102 101 91 86 85 66 42 74 60 294 14 29 32 61 32 359 9 282 213 196 196 201 212 191 190 182 167 170 185 191 194 200
138 137 140 136 140 145 148 158 150 137 136 124 113 110 107 94 89 334 173 101 329 37 27 39 19 320 286 301 319 358 259 201 199 186 212 204 192 182 167 172 185 200 203
146 147 150 156 151 152 166 180 169 162 167 144 142 129 140 143 154 216 341 89 305 73 48 27 355 315 285 281 346 294 270 222 197 193 200 199 195 184 164 166 178 178 188
151 150 154 163 161 171 170 188 184 172 184 167 130 135 162 158 206 197 188 318 12 77 248 275 301 302 302 308 277 284 290 297 312 223 195 201 196 186 178 177 160 165 175
159 158 161 161 161 178 165 188 203 170 234 144 144 154 181 186 193 334 334 305 319 248 199 239 292 294 298 306 301 300 294 311 313 279 259 208 167 123 186 173 169 167 176
163 160 155 156 163 172 176 197 202 190 192 179 182 151 173 189 192 188 233 267 298 304 269 266 66 292 292 294 295 258 243 237 246 285 284 267 180 129 257 273 154 159 176
165 162 159 157 164 167 185 192 205 210 200 183 167 157 186 189 200 203 196 188 263 291 298 310 321 298 296 299 302 299 288 263 245 239 272 275 266 203 196 194 128 173 179
168 166 163 159 165 169 181 190 197 218 216 196 187 180 200 196 198 197 196 188 215 257 277 282 285 282 285 303 305 303 299 300 292 272 274 278 273 259 226 181 187 173 146